Volver al catálogo

STARLINK-3720

ActivoComunicacionesVLEO
NORAD 52136·PAYLOAD·🇺🇸 United States

Lanzado Mar 19, 2022 desde Cape Canaveral Space Force Station

Loading…

Próximos Pases (próximas 24 horas)

TLE

ActualizadoSource: CelesTrak SupGP

Época: Sep 15, 2026, 02:49 UTC

1 52136C 22029BA  26258.11784722 -.00006626  00000+0 -18959-3 0  2581
2 52136  53.1599 293.8575 0001067  89.8471 337.3793 15.35400353    16

Sigue STARLINK-3720 en tiempo real con AllMySat

Download on the App Store